7 * 24
多渠道服务支持
ORBCOMM FM28 是一颗由 ORBCOMM 公司运营的低轨通信卫星,属于其第二代卫星通信网络(OG2)的一部分。该卫星主要用于提供全球范围内的物联网(IoT)设备数据传输服务,适用于物流、运输、资产管理等领域。FM28 于 2020 年发射,运行在近地轨道,具备高可靠性与低功耗通信能力,支持双向数据传输,提升远程监控与追踪效率。
| 数据来源 | 国际轨道数据 |
| 星历时间: | 2025-10-25T17:20:25+0800 12小时前 查看轨道信息 |
| 半长轴: | 7141.225km |
| 偏心率: | 0.000647 |
| 轨道倾角: | 45.006° |
| 近地点辐角 | 247.281° |
| 升交点赤经 | 307.378° |
| 平近点角 | 112.736° |
| 近地点: | 758.469km |
| 远地点: | 767.711km |
| 周期: | 100.096分钟 |
| 每日圈数: | 14.386122 |